Regional Weather Roundup
Issued by NWS

Home | Current Version | Previous Version | Graphics & Text | Print | Product List | Glossary On
Versions: 1 2 3 4 5 6 7 8 9 10 11 12 13 14 15 16 17 18 19 20 21 22 23 24 25 26 27 28 29 30 31 32 33 34 35 36 37 38 39 40 41 42 43 44 45 46 47 48 49 50
000
ASUS43 KIND 261209
RWRIN

WEATHER ROUNDUP FOR INDIANA
NATIONAL WEATHER SERVICE INDIANAPOLIS IN
700 AM EST FRI DEC 26 2014

NOTE: "FAIR" INDICATES FEW OR NO CLOUDS BELOW 12,000 FEET WITH NO
SIGNIFICANT WEATHER AND/OR OBSTRUCTIONS TO VISIBILITY.

* - STATION DOES NOT REPORT WEATHER SUCH AS PRECIPITATION OR FOG.

+ - STATION NOT QUALITY CONTROLLED BY THE NATIONAL WEATHER SERVICE.
    USE DATA WITH CAUTION...ESPECIALLY DEWPOINT AND RELATIVE
    HUMIDITY OBSERVATIONS.

INZ001>003-010>013-019-020-261300-
NORTHWEST INDIANA

CITY           SKY/WX    TMP DP  RH WIND       PRES   REMARKS
GARY /AIRPORT/ CLEAR     39  30  70 S10G23    30.03S
KNOX *+        CLEAR     34  29  81 S9        30.05S WCI  26
LA PORTE +     PTCLDY    35  33  94 S6        30.05S WCI  30
6HR MIN TEMP:  35; 6HR MAX TEMP:  37;

MICHIGAN CITY+ CLEAR     36  30  80 S10G18    30.04S
MONTICELLO +   CLEAR     36  33  88 S8        30.07R
RENSSELAER +   CLEAR     36  34  93 S10       30.06S
VALPARAISO     CLEAR     33  30  88 S6        30.05S WCI  28
6HR MIN TEMP:  33; 6HR MAX TEMP:  34;


$$

LMZ046-743>745-261300-
SOUTHERN LAKE MICHIGAN

STATION/POSITION TIME  TEMP WIND        PRES
                       AIR  DIR/SP/G
                 (UTC) (F)  (DEG/KT/KT) (MB)
MICHIGAN CITY    1200   37  160/ 15/ 19   N/A

$$

INZ004-005-014>016-021>024-261300-
NORTH CENTRAL INDIANA

CITY           SKY/WX    TMP DP  RH WIND       PRES   REMARKS
ELKHART        CLEAR     36  30  80 S6        30.07
GOSHEN         CLEAR     35  31  85 S10       30.07S WCI  27
6HR MIN TEMP:  34; 6HR MAX TEMP:  36;

LOGANSPORT +   CLEAR     32  30  93 S9        30.10R WCI  24
PERU/GRISSOM   CLEAR     36  36 100 S13       30.09R
6HR MIN TEMP:  34; 6HR MAX TEMP:  37;

ROCHESTER +    CLEAR     37  34  87 S8        30.09R
SOUTH BEND     CLEAR     36  31  82 S9        30.06F
6HR MIN TEMP:  35; 6HR MAX TEMP:  38;

WARSAW +       CLEAR     34  32  93 S3        30.09R

$$

INZ006>009-017-018-025>027-261300-
NORTHEAST INDIANA

CITY           SKY/WX    TMP DP  RH WIND       PRES   REMARKS
ANGOLA *+      CLEAR     30  30 100 S6        30.09R WCI  24
AUBURN +       CLEAR     34  30  86 S3        30.11S
FORT WAYNE     CLEAR     34  31  88 S12       30.12S WCI  25
6HR MIN TEMP:  32; 6HR MAX TEMP:  34;

HUNTINGTON +   CLEAR     35  32  89 S7        30.11S WCI  29
6HR MIN TEMP:  33; 6HR MAX TEMP:  35;


$$

INZ028-029-035-036-043>045-051>053-261300-
WEST CENTRAL INDIANA

CITY           SKY/WX    TMP DP  RH WIND       PRES   REMARKS
GREENCASTLE +  CLEAR     37  32  81 SW7       30.13S
LAFAYETTE      CLEAR     37  32  82 S6        30.09S
6HR MIN TEMP:  33; 6HR MAX TEMP:  37;

TERRE HAUTE    CLEAR     37  32  82 S12       30.14R
6HR MIN TEMP:  36; 6HR MAX TEMP:  38;


$$

INZ030>032-037>040-046>048-054>057-064-065-261300-
CENTRAL INDIANA

CITY           SKY/WX    TMP DP  RH WIND       PRES   REMARKS
CP ATTERBURY + CLEAR     30  30 100 MISG      30.18R FOG
COLUMBUS       CLEAR     32  32 100 S12       30.18  WCI  23
FRANKFORT +    CLEAR     34  34 100 S8        30.11S WCI  27
GREENWOOD *+   CLEAR     32  28  86 S7        30.16  WCI  26
INDIANAPOLIS   CLEAR     33  30  88 S9        30.13S WCI  25
6HR MIN TEMP:  30; 6HR MAX TEMP:  33;

-EAGLE CREEK   CLEAR     34  31  88 S5        30.13S WCI  30
6HR MIN TEMP:  31; 6HR MAX TEMP:  34;

KOKOMO *+      CLEAR     36  28  75 S14       30.10S
MARION +       CLEAR     34  31  90 S15       30.12S WCI  24
MT COMFORT *+  CLEAR     34  34 100 S8        30.15R WCI  27
SHELBYVILLE    CLEAR     35  31  85 S10       30.16S WCI  27
6HR MIN TEMP:  34; 6HR MAX TEMP:  36;

ZIONSVILLE +   CLEAR     34  31  87 S9        30.13R WCI  27
6HR MIN TEMP:  33; 6HR MAX TEMP:  35;


$$

INZ033-034-041-042-049-050-058-059-261300-
EAST CENTRAL INDIANA

CITY           SKY/WX    TMP DP  RH WIND       PRES   REMARKS
MUNCIE         CLEAR     36  32  85 S10       30.14S
6HR MIN TEMP:  34; 6HR MAX TEMP:  37;


$$

INZ060-061-067>069-081>083-085>088-261300-
SOUTHWEST INDIANA

CITY           SKY/WX    TMP DP  RH WIND       PRES   REMARKS
EVANSVILLE     CLEAR     36  32  85 S3        30.20S
6HR MIN TEMP:  35; 6HR MAX TEMP:  42;

HUNTINGBURG *+ CLEAR     36  30  80 S8        30.21S
6HR MIN TEMP:  36; 6HR MAX TEMP:  37;

WASHINGTON +   CLEAR     35  32  88 S10       30.17S WCI  28
6HR MIN TEMP:  33; 6HR MAX TEMP:  36;


$$

INZ062-063-066-070>080-084-089>092-261300-
SOUTH CENTRAL AND SOUTHEAST INDIANA

CITY           SKY/WX    TMP DP  RH WIND       PRES   REMARKS
BLOOMINGTON    CLEAR     37  33  85 S8        30.16S
6HR MIN TEMP:  30; 6HR MAX TEMP:  38;


$$



USA.gov is the U.S. government's official web portal to all federal, state and local government web resources and services.